[[{"header":{"parameterUnit":"m.s-1","parameterCategory":1,"la1":30.2992,"la2":30.254,"lo1":-89.0895,"lo2":-89.0443,"dy":0.0025,"dx":0.0025,"nx":19,"ny":19,"refTime":"2026-04-20T21:00:00:Z","depth":0,"parameterNumber":2,"parameterNumberName":"U-component_of_WINDS"},"data":[0,0,0,-2.1288,-2.1297,-2.1756,-2.1758,-2.2331,-2.2336,0,0,0,0,0,0,0,0,0,0,0,-2.1136,-2.1139,-2.1287,-2.1298,-2.1756,-2.1758,-2.233,-2.2336,0,0,0,0,0,0,0,0,0,0,0,-2.1134,-2.1138,-2.1142,-2.13,-2.1756,-2.1759,-2.2329,-2.199,0,0,0,0,0,0,0,0,0,0,-2.1547,-2.1389,-2.1137,-2.1142,-2.1302,-2.1755,-2.1759,-2.1974,-2.2011,-2.2115,0,-2.2196,0,-2.2274,-2.2373,-2.2375,0,0,0,-2.1312,-2.1358,-2.1495,-2.1143,-2.1306,-2.1755,-2.1553,-2.1995,-2.2037,-2.2164,-2.2205,-2.2226,-2.2284,-2.2376,-2.2379,-2.2916,-2.2918,0,0,-2.1287,-2.1211,-2.1466,-2.1522,-2.1442,-2.1539,-2.1567,-2.202,-2.2063,-2.2207,-2.224,-2.2293,-2.238,-2.2384,-2.2915,-2.2917,0,0,0,-2.1204,-2.1193,-2.132,-2.1497,-2.1581,-2.1551,-2.1585,-2.2043,-2.209,-2.2247,-2.23,-2.2383,-2.239,-2.2913,-2.2916,-2.2931,0,0,0,-2.119,-2.1145,-2.1308,-2.1267,-2.1572,-2.1816,-2.1596,-2.2058,-2.2112,-2.2297,-2.2383,-2.2395,-2.2911,-2.2914,-2.2927,-2.2953,0,0,0,-2.1112,-2.1136,-2.1196,-2.1262,-2.1455,-2.181,-2.1884,-2.2072,-2.2144,-2.2375,-2.2397,-2.2909,-2.2914,-2.2923,-2.2946,-2.3072,0,0,0,-2.1008,-2.1206,-2.1195,-2.1439,-2.1451,-2.1814,-2.1882,-2.2158,-2.2358,-2.2386,-2.2911,-2.2915,-2.2921,-2.2942,-2.3067,-2.3164,-2.3197,0,0,-2.1216,-2.1228,-2.1378,-2.1382,-2.1726,-2.175,-2.2102,-2.2359,-2.2454,-2.2759,-2.2773,-2.2928,-2.2945,-2.3071,-2.3408,-2.3433,0,0,0,-2.1419,-2.1525,-2.1633,-2.1817,-2.2014,-2.2189,-2.2399,-2.2496,-2.2758,-2.2592,-2.3011,-2.3023,-2.31,-2.3151,-2.3172,-2.3245,-2.2935,-2.2934,-2.2934,-2.1607,-2.1712,-2.1968,-2.213,-2.2308,-2.2524,-2.2681,-2.2849,-2.2907,-2.3004,-2.3095,-2.3286,-2.3341,-2.3358,-2.3432,-2.3155,-2.3155,-2.3156,-2.3156,-2.1923,-2.2091,-2.2161,-2.2433,-2.2548,-2.2781,-2.3,-2.3033,-2.3272,-2.3225,-2.3299,-2.3239,-2.3382,-2.3453,-2.3158,-2.3158,-2.3157,-2.3157,-2.3157,-2.2058,-2.2156,-2.2267,-2.2545,-2.2749,-2.291,-2.3134,-2.3232,-2.3327,-2.3399,-2.3507,-2.3507,-2.3521,-2.3443,-2.3444,-2.3445,-2.3445,-2.3446,-2.3446,-2.2153,-2.2277,-2.245,-2.2678,-2.281,-2.2997,-2.3219,-2.3355,-2.3531,-2.3585,-2.3586,-2.3636,-2.3375,-2.3308,-2.3457,-2.3455,-2.3454,-2.3453,-2.3452,-2.2434,-2.2386,-2.2653,-2.2785,-2.3063,-2.3261,-2.3383,-2.3651,-2.3778,-2.3887,-2.3924,-2.3714,-2.3735,-2.3719,-2.3664,-2.3897,-2.3897,-2.3897,-2.3897,-2.2548,-2.2567,-2.2863,-2.3068,-2.3281,-2.3418,-2.3725,-2.3902,-2.4078,-2.4166,-2.4147,-2.4082,-2.4061,-2.4096,-2.4071,-2.4021,-2.434,-2.4341,-2.4341,-2.2728,-2.2772,-2.301,-2.3174,-2.34,-2.3594,-2.3886,-2.4126,-2.4318,-2.4361,-2.4237,-2.4218,-2.4115,-2.4075,-2.4114,-2.4073,-2.3984,0,0]},{"header":{"parameterUnit":"m.s-1","parameterCategory":1,"la1":30.2992,"la2":30.254,"lo1":-89.0895,"lo2":-89.0443,"dy":0.0025,"dx":0.0025,"nx":19,"ny":19,"refTime":"2026-04-20T21:00:00:Z","depth":0,"parameterNumber":3,"parameterNumberName":"V-component_of_WINDS"},"data":[0,0,0,-1.5405,-1.5405,-1.5398,-1.5398,-1.539,-1.539,0,0,0,0,0,0,0,0,0,0,0,-1.5409,-1.5409,-1.5405,-1.5405,-1.5398,-1.5398,-1.539,-1.539,0,0,0,0,0,0,0,0,0,0,0,-1.5409,-1.5409,-1.5409,-1.5405,-1.5398,-1.5398,-1.539,-1.5395,0,0,0,0,0,0,0,0,0,0,-1.5401,-1.5407,-1.5409,-1.5409,-1.5405,-1.5398,-1.5398,-1.5395,-1.5395,-1.5394,0,-1.5395,0,-1.5393,-1.539,-1.539,0,0,0,-1.5404,-1.5407,-1.5404,-1.5409,-1.5405,-1.5398,-1.5401,-1.5395,-1.5394,-1.5394,-1.5395,-1.5395,-1.5393,-1.539,-1.539,-1.5393,-1.5393,0,0,-1.5404,-1.5408,-1.5404,-1.5404,-1.5406,-1.5401,-1.5401,-1.5395,-1.5396,-1.5395,-1.5394,-1.5392,-1.539,-1.539,-1.5393,-1.5393,0,0,0,-1.5406,-1.5409,-1.5406,-1.5404,-1.5403,-1.5401,-1.5401,-1.5396,-1.5395,-1.5394,-1.5392,-1.539,-1.539,-1.5393,-1.5393,-1.5402,0,0,0,-1.5406,-1.541,-1.5406,-1.5408,-1.5403,-1.54,-1.5403,-1.5395,-1.5395,-1.5392,-1.539,-1.539,-1.5393,-1.5393,-1.5401,-1.5405,0,0,0,-1.5409,-1.541,-1.541,-1.5409,-1.5406,-1.54,-1.5398,-1.5395,-1.5393,-1.539,-1.539,-1.5393,-1.5393,-1.5401,-1.5404,-1.5407,0,0,0,-1.5413,-1.5418,-1.541,-1.5415,-1.5406,-1.5405,-1.5398,-1.5397,-1.5395,-1.539,-1.5393,-1.5393,-1.5401,-1.5404,-1.5407,-1.541,-1.5412,0,0,-1.5421,-1.5419,-1.5421,-1.5414,-1.5416,-1.5406,-1.5408,-1.5402,-1.5398,-1.5395,-1.5395,-1.5401,-1.5404,-1.5407,-1.5421,-1.5422,0,0,0,-1.5425,-1.5427,-1.5427,-1.5425,-1.5421,-1.5417,-1.541,-1.5407,-1.5405,-1.5397,-1.5403,-1.5404,-1.5406,-1.5407,-1.5408,-1.5409,-1.5394,-1.5394,-1.5394,-1.5445,-1.5438,-1.5442,-1.5434,-1.5433,-1.5425,-1.5422,-1.5417,-1.5412,-1.5413,-1.5412,-1.5421,-1.5423,-1.5424,-1.5425,-1.5413,-1.5413,-1.5413,-1.5413,-1.5457,-1.5458,-1.545,-1.545,-1.5442,-1.5442,-1.5434,-1.5429,-1.5427,-1.5422,-1.5423,-1.5417,-1.5426,-1.5426,-1.5414,-1.5414,-1.5414,-1.5414,-1.5414,-1.5469,-1.5469,-1.5465,-1.5462,-1.5459,-1.5451,-1.5449,-1.5442,-1.5436,-1.5437,-1.5435,-1.5435,-1.5434,-1.5436,-1.5436,-1.5436,-1.5436,-1.5436,-1.5436,-1.5483,-1.5479,-1.5479,-1.5474,-1.5471,-1.5467,-1.5458,-1.5455,-1.545,-1.5445,-1.5445,-1.5438,-1.5428,-1.5426,-1.5437,-1.5437,-1.5437,-1.5437,-1.5437,-1.5499,-1.5494,-1.5494,-1.5491,-1.5483,-1.5481,-1.5472,-1.5466,-1.5462,-1.5461,-1.5454,-1.5448,-1.5445,-1.5444,-1.5442,-1.5456,-1.5456,-1.5456,-1.5456,-1.5509,-1.5507,-1.5504,-1.55,-1.5496,-1.5487,-1.5485,-1.5478,-1.5469,-1.5466,-1.5463,-1.5459,-1.5458,-1.5456,-1.5454,-1.5452,-1.5469,-1.5469,-1.5469,-1.5518,-1.5514,-1.5515,-1.5507,-1.55,-1.5494,-1.5492,-1.5487,-1.5476,-1.5469,-1.5463,-1.5463,-1.5457,-1.5456,-1.5451,-1.5449,-1.5445,0,0]}]]